Home > Time Zones > World Clock > Weather > Mali > Bamako > Past weeks

Flag for Mali Weather past 2 weeks in Bamako, Mali

Now
81 °F

Partly sunny.


Feels Like: 85 °F
Forecast: 71 / 80 °F
Wind: 5 mph from Southwest

Location: Bamako / Senou

Current Time: Jul 29, 2015 at 11:45:16 AM

Latest Report: Jul 29, 2015 at 11:00 AM


Visibility: N/A

Pressure: 30.04 "Hg

Humidity: 74%

Dew point: 72 °F

Location of BamakoLocation

Historic Weather in Bamako — Graph

°F

Bamako temperature yesterday

Maximum temperature yesterday: 79 °F (at 12:00 AM)
Minimum temperature yesterday: 70 °F (at 10:00 AM)
Average temperature yesterday: 75 °F

Past Weeks' High & Low Weather Summary

 TemperatureHumidityPressure
High99 °F (Jul 14, 3:30 PM)100% (Jul 15, 10:30 PM)32.90 "Hg (Jul 15, 10:30 PM)
Low70 °F (Jul 15, 10:30 PM)32% (Jul 14, 6:30 PM)29.83 "Hg (Jul 14, 5:30 PM)
Average81 °F80%29.96 "Hg
* Reported Jul 14 10:00 AM — Jul 29 10:30 AM, Bamako, Weather by CustomWeather, © 2015

Note: Actual official high and low records may vary slightly from our data, if they occured in-between our weather recording intervals... More about our weather records

Advertising

Bamako weather history for previous 24 hours

 ConditionsComfort  
Time TempWeatherWind HumidityBarometerVisibility
10:30 AM
Wed, Jul 29
79 °FScattered clouds.7 mph84%30.04 "HgN/A
10:00 AM81 °FScattered clouds.6 mph79%30.04 "HgN/A
9:30 AM79 °FPassing clouds.6 mph84%30.04 "HgN/A
9:00 AM79 °FPassing clouds.5 mph84%30.04 "HgN/A
8:30 AM77 °FPassing clouds.5 mph89%30.04 "HgN/A
7:30 AM75 °FPassing clouds.6 mph100%30.01 "HgN/A
7:00 AM73 °FPassing clouds.6 mph100%30.01 "HgN/A
6:30 AM73 °FPassing clouds.3 mph100%30.01 "HgN/A
6:00 AM73 °FPassing clouds.1 mph100%29.98 "HgN/A
5:30 AM73 °FPassing clouds.2 mph100%29.98 "HgN/A
5:00 AM73 °FClear.1 mph100%29.98 "Hg10 mi
4:30 AM73 °FClear.5 mph100%29.98 "Hg10 mi
4:00 AM73 °FClear.1 mph100%29.98 "Hg10 mi
3:30 AM73 °FClear.3 mph100%29.95 "Hg10 mi
3:00 AM72 °FClear.No wind100%29.92 "Hg10 mi
2:30 AM73 °FPassing clouds.6 mph100%29.95 "HgN/A
2:00 AM73 °FPassing clouds.3 mph100%29.95 "HgN/A
1:30 AM73 °FPassing clouds.3 mph100%29.95 "HgN/A
1:00 AM73 °FPassing clouds.5 mph100%29.98 "HgN/A
12:30 AM73 °FPassing clouds.5 mph100%29.98 "HgN/A
12:00 AM73 °FPassing clouds.5 mph100%29.98 "HgN/A
11:30 PM
Tue, Jul 28
73 °FPassing clouds.6 mph100%29.98 "HgN/A
11:00 PM73 °FPassing clouds.5 mph100%29.98 "HgN/A
9:30 PM73 °FPassing clouds.3 mph100%29.98 "HgN/A
9:00 PM73 °FClear.No wind94%29.95 "Hg10 mi
8:30 PM73 °FPassing clouds.5 mph100%29.98 "HgN/A
8:00 PM75 °FPassing clouds.5 mph100%29.98 "HgN/A
7:30 PM75 °FPassing clouds.3 mph94%29.95 "HgN/A
7:00 PM75 °FPassing clouds.5 mph94%29.95 "HgN/A
6:30 PM75 °FScattered clouds.5 mph100%29.95 "HgN/A
6:00 PM77 °FPartly sunny.5 mph89%29.92 "HgN/A
5:30 PM77 °FScattered clouds.7 mph89%29.92 "HgN/A
5:00 PM79 °FScattered clouds.6 mph84%29.92 "HgN/A
4:00 PM79 °FScattered clouds.1 mph84%29.95 "HgN/A
3:30 PM77 °FScattered clouds.2 mph83%29.95 "HgN/A
3:00 PM77 °FScattered clouds.1 mph89%29.95 "HgN/A
2:30 PM75 °FBroken clouds.3 mph94%29.95 "HgN/A
2:00 PM73 °FBroken clouds.2 mph100%29.98 "HgN/A
1:30 PM73 °FBroken clouds.3 mph100%29.98 "HgN/A
1:00 PM72 °FBroken clouds.6 mph100%30.01 "HgN/A
12:30 PM72 °FPartly sunny.No wind100%30.04 "HgN/A
12:00 PM70 °FThunderstorms. Partly sunny.No wind100%30.04 "Hg4 mi
11:30 AM70 °FThunderstorms. Partly sunny.5 mph100%30.04 "Hg4 mi
11:00 AM70 °FThunderstorms. Partly sunny.7 mph100%30.04 "Hg2 mi
Weather by CustomWeather, © 2015

See weather overviewHow to use our weather pages